This demonstration page uses our WeatherBlox Daily Observations layout. Learn more.

Left ArrowRight Arrow

39.12711, -84.51439

Hourly Observations for January 19, 2018

Temp ( °F °C ) Dew Point ( °F °C ) Humidity (%) Winds ( mph kmh ) Pressure ( in mb ) Visibility ( mi km ) Precip ( " mm )
12:53 am 00:53 Clear 24 -4.4 13 -10.6 62 62 SSW 7 11 30.25 1024 10 16 N/A
1:53 am 01:53 Clear 23 -5 12 -11.1 63 63 SSW 8 13 30.23 1024 10 16 N/A
2:53 am 02:53 Clear 24 -4.4 13 -10.6 62 62 SSW 10 17 30.23 1024 10 16 N/A
3:53 am 03:53 Clear 23 -5 12 -11.1 63 63 SSW 8 13 30.24 1024 10 16 N/A
4:53 am 04:53 Clear 22 -5.6 12 -11.1 66 66 SSW 9 15 30.24 1024 10 16 N/A
5:53 am 05:53 Clear 21 -6.1 12 -11.1 68 68 SSW 6 9 30.24 1024 10 16 N/A
6:53 am 06:53 Clear 21 -6.1 12 -11.1 68 68 S 9 15 30.22 1024 10 16 N/A
7:53 am 07:53 Clear 21 -6.1 12 -11.1 68 68 SSW 7 11 30.23 1024 10 16 N/A
8:53 am 08:53 Sunny 21 -6.1 12 -11.1 68 68 SSW 5 7 30.24 1024 10 16 N/A
9:53 am 09:53 Sunny 25 -3.9 14 -10 63 63 S 9 15 30.22 1024 10 16 N/A
10:53 am 10:53 Sunny 29 -1.7 16 -8.9 58 58 S 10 17 30.22 1024 10 16 N/A
11:53 am 11:53 Sunny 32 undefined 17 -8.3 54 54 SSW 15 24 30.18 1022 10 16 N/A
12:53 pm 12:53 Sunny 36 2.2 18 -7.8 48 48 SSW 14 22 30.16 1021 10 16 N/A
1:53 pm 13:53 Sunny 38 3.3 20 -6.7 48 48 SSW 13 20 30.13 1020 10 16 N/A
2:53 pm 14:53 Sunny 40 4.4 21 -6.1 47 47 SSW 13 20 30.10 1019 10 16 N/A
3:53 pm 15:53 Sunny 41 5 20 -6.7 43 43 SSW 20 31 30.09 1019 10 16 N/A
4:53 pm 16:53 Sunny 40 4.4 21 -6.1 47 47 SSW 14 22 30.09 1019 10 16 N/A
5:53 pm 17:53 Clear 39 3.9 22 -5.6 50 50 SSW 12 19 30.09 1019 10 16 N/A
6:53 pm 18:53 Clear 37 2.8 22 -5.6 54 54 SSW 13 20 30.08 1019 10 16 N/A
7:53 pm 19:53 Clear 34 1.1 21 -6.1 59 59 SSW 8 13 30.09 1019 10 16 N/A
8:53 pm 20:53 Clear 35 1.7 21 -6.1 57 57 SSW 16 26 30.09 1019 10 16 N/A
9:53 pm 21:53 Clear 35 1.7 21 -6.1 57 57 SSW 13 20 30.08 1019 10 16 N/A
10:53 pm 22:53 Clear 34 1.1 21 -6.1 59 59 S 9 15 30.07 1018 10 16 N/A
11:53 pm 23:53 Clear 33 0.6 21 -6.1 61 61 S 10 17 30.06 1018 10 16 N/A

Powered by AerisWeather